User: anonymous   Login
Location: Unspecified
(0.0000°N, 0.0000°E)
Time: 08:52:31
(UTC+00:00)
Language:

PLEIADES HR1 - Orbit

View from above orbital plane
View from above orbital plane
View from above satellite
View from above satellite

Ground track
Ground track

The orbit data is extracted from the following two-line orbital elements,

1 38012U 11076F   15062.19797125  .00000374  00000-0  90420-4 0  9997
2 38012 098.2031 138.3377 0001418 084.3808 275.7557 14.58534960170850
Epoch (UTC): 03 March 2015 04:45:04
Eccentricity: 0.0001418
inclination: 98.2031°
perigee height: 697 km
apogee height: 699 km
right ascension of ascending node: 138.3377°
argument of perigee: 84.3808°
revolutions per day: 14.58534960
mean anomaly at epoch: 275.7557°
orbit number at epoch: 17085

The dashed part of the orbit path shows where the satellite is in the earth's shadow,  

DLR